User: anonymous   Login
Location: Acton
(51.4942°N, 0.2232°W)
Time: 12:44:27
(UTC+00:00)
Language:

Cosmos 494 Rocket - Orbit

View from above orbital plane
View from above orbital plane
View from above satellite
View from above satellite

Ground track
Ground track

The orbit data is extracted from the following two-line orbital elements,

1 06061U 72043B   21206.66705688  .00000054  00000-0  25134-4 0  9994
2 06061  74.0574 290.4715 0019306  41.6880 318.5742 14.40625488573957
Epoch (UTC): 25 July 2021 16:00:33
Eccentricity: 0.0019306
inclination: 74.0574°
perigee height: 742 km
apogee height: 770 km
right ascension of ascending node: 290.4715°
argument of perigee: 41.6880°
revolutions per day: 14.40625488
mean anomaly at epoch: 318.5742°
orbit number at epoch: 57395

The dashed part of the orbit path shows where the satellite is in the earth's shadow,  

DLR